Overview Statistics Trail Chart Weather Telemetry Raw packets
 

This is the latest recevied weather packets stored in our database for station/object LU4EGV-13. If no packets are shown the sender has not sent any weather packets the latest 10 day(s).

<< 43 44 45 46 47 48 49 >>
Time Temp. Humidity Pressure Rain* Wind** Luminosity Snow
1788008898 16.67° C 75% 1012.4 hPa 0 mm - - -
1788008290 15.56° C 87% 1012.6 hPa 0 mm - - -
1788007684 14.44° C 90% 1012.5 hPa 0 mm - - -
1788007078 13.89° C 94% 1012.4 hPa 0 mm - - -
1788006472 12.78° C 93% 1012.3 hPa 0 mm - - -
1788005865 11.67° C 94% 1012.3 hPa 0 mm - - -
1788005259 10.56° C 94% 1012.3 hPa 0 mm - - -
1788004653 10° C 93% 1012.1 hPa 0 mm - - -
1788004052 9.44° C 94% 1012 hPa 0 mm - - -
1788003442 9.44° C 94% 1012 hPa 0 mm - - -
1788002835 9.44° C 93% 1012 hPa 0 mm - - -
1788002228 8.89° C 93% 1011.9 hPa 0 mm - - -
1788001623 8.89° C 94% 1011.9 hPa 0 mm - - -
1788001016 8.33° C 94% 1011.6 hPa 0 mm - - -
1788000415 8.33° C 94% 1011.6 hPa 0 mm - - -
1787999807 8.33° C 94% 1011.4 hPa 0 mm - - -
1787999197 7.78° C 93% 1011.2 hPa 0 mm - - -
1787998603 7.78° C 93% 1011.4 hPa 0 mm - - -
1787997990 7.78° C 92% 1011.5 hPa 0 mm - - -
1787997380 7.22° C 92% 1011.6 hPa 0 mm - - -
1787996781 7.22° C 92% 1011.3 hPa 0 mm - - -
1787996167 7.22° C 92% 1011.4 hPa 0 mm - - -
1787995561 7.22° C 92% 1011.5 hPa 0 mm - - -
1787994954 7.22° C 92% 1011.4 hPa 0 mm - - -
1787994348 7.22° C 91% 1011.3 hPa 0 mm - - -

* Rain latest hour (hover to see other rain measurements)
** Current wind speed in m/s (hover to see current wind gust speed)